BAW31 EGLL-VHHH

Flight info

Callsign BAW31
Flight time N/A
Altitude 39000
Route DET1J DET L6 DVR L9 KONAN UL607 KOK DCT REMBA DCT MATUG DCT AMASI DCT BOMBI/N0488F370 DCT TENLO DCT DEXIT DCT PESAT DCT TEGRI DCT UDROS UM859 KARDE UN644 ROLIN DCT TAGAR DCT BT DCT BARAD M747 BAGVA/N0490F390 M747 SUBUT T916 LEYLA N161 GASBI/K0907F390 N161 SARIN/K0896S1190 A368 FKG W192 ESDEX W191 DNC W565 BIGUX B330 KWE W181 DUDIT A599 POU R473 SIERA SIERA7D
Aircraft A35K/H-SBDE1E2E3GHIJ1J3J4J5J6M1M2P2RWXYZ/LB1D1

Departure

Time N/A
Airport London Heathrow Airport (EGLL)

Arrival

Time 2026-04-30 06:55
Airport Hong Kong International Airport (VHHH)
Time Latitude Longitude Altitude Speed Heading
2026-04-30 03:14 39.69520 95.76485 39137 ft 558 kts 122°
2026-04-30 03:14 39.66018 95.85537 39137 ft 559 kts 122°
2026-04-30 03:15 39.62544 95.94495 39138 ft 557 kts 122°
2026-04-30 03:15 39.59059 96.03457 39146 ft 555 kts 122°
2026-04-30 03:16 39.55564 96.12414 39150 ft 556 kts 122°
2026-04-30 03:16 39.52045 96.21353 39147 ft 557 kts 122°
2026-04-30 03:17 39.48511 96.30279 39156 ft 557 kts 122°
2026-04-30 03:17 39.44993 96.39151 39152 ft 557 kts 122°
2026-04-30 03:18 39.41450 96.48059 39145 ft 556 kts 122°
2026-04-30 03:18 39.37901 96.56961 39139 ft 557 kts 122°
2026-04-30 03:19 39.34341 96.65860 39140 ft 557 kts 122°
2026-04-30 03:19 39.30780 96.74745 39132 ft 556 kts 122°
2026-04-30 03:20 39.27219 96.83605 39122 ft 555 kts 122°
2026-04-30 03:20 39.23695 96.92447 39114 ft 553 kts 122°
2026-04-30 03:21 39.20208 97.01270 39115 ft 557 kts 122°
2026-04-30 03:21 39.16689 97.10163 39105 ft 556 kts 122°
2026-04-30 03:22 39.13156 97.19053 39092 ft 556 kts 122°
2026-04-30 03:22 39.09626 97.27892 39100 ft 557 kts 122°
2026-04-30 03:23 39.06068 97.36764 39116 ft 558 kts 122°
2026-04-30 03:23 39.02506 97.45633 39112 ft 558 kts 122°
2026-04-30 03:24 38.98939 97.54498 39113 ft 558 kts 122°
2026-04-30 03:24 38.95366 97.63346 39100 ft 557 kts 122°
2026-04-30 03:25 38.91786 97.72179 39113 ft 558 kts 122°
2026-04-30 03:25 38.88205 97.80977 39101 ft 558 kts 122°
2026-04-30 03:26 38.84598 97.89805 39092 ft 558 kts 122°
2026-04-30 03:26 38.81014 97.98559 39349 ft 554 kts 121°
2026-04-30 03:27 38.79216 98.02935 39078 ft 553 kts 122°
2026-04-30 03:27 38.78026 98.05820 39101 ft 554 kts 122°
2026-04-30 03:27 38.74423 98.14567 39093 ft 555 kts 122°
2026-04-30 03:28 38.70810 98.23342 39102 ft 557 kts 122°
2026-04-30 03:28 38.67188 98.32106 39099 ft 558 kts 122°
2026-04-30 03:29 38.63554 98.40866 39097 ft 557 kts 123°
2026-04-30 03:29 38.59909 98.49623 39105 ft 557 kts 122°
2026-04-30 03:30 38.55667 98.59785 39094 ft 557 kts 123°
2026-04-30 03:30 38.52629 98.67043 39103 ft 557 kts 123°
2026-04-30 03:31 38.48961 98.75782 39094 ft 559 kts 123°
2026-04-30 03:31 38.45263 98.84562 39102 ft 561 kts 123°
2026-04-30 03:32 38.41571 98.93320 39100 ft 560 kts 123°
2026-04-30 03:32 38.37873 99.02065 39105 ft 559 kts 123°
2026-04-30 03:33 38.34166 99.10799 39112 ft 559 kts 123°
2026-04-30 03:33 38.30485 99.19452 39095 ft 559 kts 123°
2026-04-30 03:34 38.26763 99.28179 39102 ft 559 kts 123°
2026-04-30 03:34 38.23050 99.36860 39103 ft 558 kts 123°
2026-04-30 03:35 38.19335 99.45519 39102 ft 558 kts 123°
2026-04-30 03:35 38.15632 99.54124 39093 ft 559 kts 123°
2026-04-30 03:36 38.11888 99.62803 39092 ft 560 kts 123°
2026-04-30 03:36 38.08144 99.71460 39094 ft 560 kts 123°
2026-04-30 03:37 38.04389 99.80119 39089 ft 560 kts 123°
2026-04-30 03:37 38.00616 99.88794 39061 ft 561 kts 123°
2026-04-30 03:38 37.96856 99.97412 39081 ft 562 kts 123°
2026-04-30 03:38 37.93057 100.06102 39073 ft 563 kts 123°
2026-04-30 03:39 37.89253 100.14779 39075 ft 563 kts 123°
2026-04-30 03:39 37.85465 100.23397 39074 ft 563 kts 123°
2026-04-30 03:40 37.81645 100.32063 39066 ft 563 kts 124°
2026-04-30 03:40 37.77820 100.40712 39068 ft 564 kts 124°
2026-04-30 03:41 37.73988 100.49357 39075 ft 563 kts 123°
2026-04-30 03:41 37.70151 100.57995 39068 ft 564 kts 123°
2026-04-30 03:42 37.66317 100.66600 39066 ft 566 kts 123°
2026-04-30 03:42 37.62521 100.75320 39072 ft 568 kts 122°
2026-04-30 03:43 37.58842 100.84158 39061 ft 568 kts 121°
2026-04-30 03:43 37.55170 100.92968 39063 ft 567 kts 122°
2026-04-30 03:44 37.51458 101.01765 39080 ft 570 kts 122°
2026-04-30 03:44 37.47717 101.10557 39055 ft 569 kts 122°
2026-04-30 03:45 37.43985 101.19334 39058 ft 568 kts 122°
2026-04-30 03:45 37.40269 101.28047 39050 ft 567 kts 122°
2026-04-30 03:46 37.36531 101.36782 39058 ft 567 kts 122°
2026-04-30 03:46 37.32775 101.45531 39060 ft 569 kts 123°
2026-04-30 03:47 37.29423 101.54560 39065 ft 573 kts 111°
2026-04-30 03:47 37.27062 101.64090 39064 ft 573 kts 108°
2026-04-30 03:48 37.24873 101.73758 39079 ft 577 kts 107°
2026-04-30 03:48 37.22683 101.83459 39084 ft 579 kts 108°
2026-04-30 03:49 37.20475 101.93093 39074 ft 577 kts 108°
2026-04-30 03:49 37.18237 102.02761 39069 ft 577 kts 108°
2026-04-30 03:50 37.15985 102.12434 39083 ft 577 kts 107°
2026-04-30 03:50 37.13725 102.22071 39074 ft 575 kts 107°
2026-04-30 03:51 37.11172 102.31546 39101 ft 573 kts 118°
2026-04-30 03:51 37.07262 102.40214 39102 ft 571 kts 125°
2026-04-30 03:52 37.03083 102.48617 39102 ft 572 kts 126°
2026-04-30 03:52 36.98813 102.57041 39113 ft 575 kts 126°
2026-04-30 03:53 36.94554 102.65484 39115 ft 574 kts 126°
2026-04-30 03:53 36.90295 102.73959 39106 ft 574 kts 126°
2026-04-30 03:54 36.86076 102.82349 39108 ft 574 kts 125°
2026-04-30 03:54 36.81877 102.90851 39105 ft 577 kts 120°
2026-04-30 03:55 36.78257 102.99792 39104 ft 578 kts 118°
2026-04-30 03:55 36.74754 103.08835 39097 ft 577 kts 118°
2026-04-30 03:56 36.71276 103.17862 39117 ft 578 kts 117°
2026-04-30 03:56 36.67781 103.26876 39112 ft 578 kts 117°
2026-04-30 03:57 36.64266 103.35882 39121 ft 578 kts 118°
2026-04-30 03:57 36.60761 103.44827 39121 ft 579 kts 118°
2026-04-30 03:58 36.57226 103.53829 39131 ft 579 kts 117°
2026-04-30 03:58 36.53674 103.62847 39175 ft 580 kts 117°
2026-04-30 03:59 36.49787 103.71626 39175 ft 579 kts 123°
2026-04-30 03:59 36.45615 103.80200 39162 ft 579 kts 123°
2026-04-30 04:00 36.41494 103.88740 39125 ft 579 kts 122°
2026-04-30 04:00 36.37401 103.97383 39125 ft 581 kts 122°
2026-04-30 04:01 36.33320 104.06048 39114 ft 581 kts 122°
2026-04-30 04:01 36.29247 104.14696 39113 ft 581 kts 122°
2026-04-30 04:02 36.25086 104.23277 39128 ft 580 kts 127°
2026-04-30 04:02 36.22544 104.27118 39117 ft 574 kts 139°
2026-04-30 04:02 36.19528 104.30317 39118 ft 565 kts 151°
2026-04-30 04:03 36.16193 104.32684 39118 ft 553 kts 164°
2026-04-30 04:03 36.12608 104.34203 39118 ft 538 kts 176°
2026-04-30 04:03 36.08956 104.34859 39123 ft 523 kts 186°
2026-04-30 04:03 36.05335 104.35068 39117 ft 519 kts 188°
2026-04-30 04:04 35.98119 104.35149 39111 ft 517 kts 190°
2026-04-30 04:04 35.90902 104.35164 39111 ft 518 kts 190°
2026-04-30 04:05 35.83730 104.35240 39118 ft 518 kts 189°
2026-04-30 04:05 35.76510 104.35360 39121 ft 518 kts 189°
2026-04-30 04:06 35.69299 104.35476 39116 ft 518 kts 189°
2026-04-30 04:06 35.62092 104.35590 39116 ft 518 kts 189°
2026-04-30 04:07 35.54880 104.35704 39118 ft 517 kts 189°
2026-04-30 04:08 35.44068 104.35884 39112 ft 518 kts 189°
2026-04-30 04:08 35.36883 104.35996 39110 ft 518 kts 189°
2026-04-30 04:09 35.29700 104.36108 39119 ft 516 kts 189°
2026-04-30 04:09 35.22500 104.36221 39111 ft 515 kts 189°
2026-04-30 04:10 35.15362 104.36334 39106 ft 515 kts 189°
2026-04-30 04:10 35.08186 104.36448 39093 ft 514 kts 189°
2026-04-30 04:11 35.01030 104.36563 39096 ft 513 kts 189°
2026-04-30 04:11 34.93888 104.36676 39085 ft 513 kts 189°
2026-04-30 04:12 34.86745 104.36787 39075 ft 513 kts 188°
2026-04-30 04:12 34.79672 104.36899 39074 ft 510 kts 189°
2026-04-30 04:13 34.72577 104.37012 39068 ft 510 kts 189°
2026-04-30 04:13 34.65467 104.37122 39066 ft 510 kts 189°
2026-04-30 04:14 34.59561 104.37214 39057 ft 510 kts 188°
2026-04-30 04:14 34.51309 104.37343 39063 ft 510 kts 188°
2026-04-30 04:15 34.45410 104.37435 39066 ft 510 kts 188°
2026-04-30 04:15 34.38307 104.37546 39054 ft 510 kts 188°
2026-04-30 04:16 34.31214 104.37656 39074 ft 510 kts 188°
2026-04-30 04:16 34.24109 104.37768 39078 ft 510 kts 188°
2026-04-30 04:17 34.17004 104.37877 39083 ft 510 kts 188°
2026-04-30 04:17 34.09942 104.37986 39080 ft 510 kts 188°
2026-04-30 04:18 34.02845 104.38097 39080 ft 509 kts 188°
2026-04-30 04:18 33.95741 104.38208 39081 ft 509 kts 188°
2026-04-30 04:19 33.88652 104.38318 39081 ft 509 kts 188°
2026-04-30 04:19 33.81594 104.38425 39082 ft 511 kts 188°
2026-04-30 04:20 33.74466 104.38533 39076 ft 511 kts 187°
2026-04-30 04:20 33.67320 104.38641 39104 ft 514 kts 187°
2026-04-30 04:21 33.60150 104.39826 39091 ft 531 kts 169°
2026-04-30 04:21 33.56678 104.41473 39096 ft 539 kts 158°
2026-04-30 04:21 33.53363 104.43605 39107 ft 542 kts 155°
2026-04-30 04:22 33.46853 104.48253 39117 ft 547 kts 153°
2026-04-30 04:22 33.40343 104.52782 39131 ft 539 kts 161°
2026-04-30 04:22 33.36865 104.54325 39123 ft 526 kts 173°
2026-04-30 04:23 33.33318 104.55114 39135 ft 514 kts 181°
2026-04-30 04:23 33.26195 104.55777 39139 ft 513 kts 184°
2026-04-30 04:24 33.19073 104.56166 39150 ft 511 kts 185°
2026-04-30 04:24 33.11967 104.56556 39162 ft 512 kts 184°
2026-04-30 04:25 33.04848 104.56989 39155 ft 512 kts 184°
2026-04-30 04:25 32.97773 104.57438 39174 ft 513 kts 184°
2026-04-30 04:26 32.90646 104.57895 39142 ft 512 kts 184°
2026-04-30 04:26 32.83529 104.58353 39171 ft 512 kts 184°
2026-04-30 04:27 32.76405 104.58801 39179 ft 511 kts 183°
2026-04-30 04:27 32.69361 104.59182 39192 ft 509 kts 184°
2026-04-30 04:28 32.62262 104.59472 39182 ft 509 kts 184°
2026-04-30 04:28 32.55172 104.59760 39177 ft 510 kts 184°
2026-04-30 04:29 32.48092 104.60073 39213 ft 512 kts 184°
2026-04-30 04:29 32.40955 104.60402 39207 ft 512 kts 184°
2026-04-30 04:30 32.33825 104.60768 39212 ft 513 kts 184°
2026-04-30 04:30 32.26695 104.61171 39206 ft 513 kts 184°
2026-04-30 04:31 32.19551 104.61571 39215 ft 514 kts 184°
2026-04-30 04:31 32.12449 104.61962 39205 ft 514 kts 184°
2026-04-30 04:32 32.05292 104.62353 39210 ft 514 kts 184°
2026-04-30 04:32 31.98145 104.62743 39204 ft 511 kts 184°
2026-04-30 04:33 31.91063 104.63129 39211 ft 508 kts 184°
2026-04-30 04:33 31.84042 104.63509 39209 ft 508 kts 184°
2026-04-30 04:34 31.76977 104.63892 39208 ft 508 kts 184°
2026-04-30 04:34 31.69939 104.64204 39205 ft 504 kts 184°
2026-04-30 04:35 31.62939 104.64455 39198 ft 502 kts 184°
2026-04-30 04:35 31.55944 104.64713 39196 ft 502 kts 184°
2026-04-30 04:36 31.49001 104.64982 39172 ft 502 kts 184°
2026-04-30 04:36 31.42017 104.65258 39189 ft 500 kts 184°
2026-04-30 04:37 31.35058 104.65534 39186 ft 500 kts 184°
2026-04-30 04:37 31.28099 104.65808 39190 ft 500 kts 184°
2026-04-30 04:38 31.21176 104.66080 39177 ft 499 kts 184°
2026-04-30 04:38 31.14235 104.66353 39185 ft 498 kts 184°
2026-04-30 04:39 31.07309 104.66625 39184 ft 498 kts 184°
2026-04-30 04:39 31.00373 104.67019 39186 ft 500 kts 181°
2026-04-30 04:40 30.93436 104.67851 39176 ft 502 kts 180°
2026-04-30 04:40 30.86488 104.68738 39187 ft 502 kts 180°
2026-04-30 04:41 30.79575 104.69566 39184 ft 502 kts 180°
2026-04-30 04:41 30.72617 104.70354 39190 ft 502 kts 180°
2026-04-30 04:42 30.65661 104.71131 39178 ft 502 kts 181°
2026-04-30 04:42 30.58698 104.71910 39188 ft 502 kts 181°
2026-04-30 04:43 30.51782 104.72688 39201 ft 502 kts 181°
2026-04-30 04:43 30.44806 104.73465 39202 ft 502 kts 181°
2026-04-30 04:44 30.37861 104.74236 39203 ft 502 kts 181°
2026-04-30 04:44 30.30907 104.75008 39206 ft 502 kts 181°
2026-04-30 04:45 30.23953 104.75781 39205 ft 502 kts 181°
2026-04-30 04:45 30.17046 104.76546 39192 ft 502 kts 181°
2026-04-30 04:46 30.10081 104.77318 39189 ft 501 kts 181°
2026-04-30 04:46 30.03143 104.78086 39197 ft 500 kts 181°
2026-04-30 04:47 29.96221 104.78857 39192 ft 500 kts 181°
2026-04-30 04:47 29.89337 104.79616 39193 ft 500 kts 181°
2026-04-30 04:48 29.82389 104.80378 39188 ft 500 kts 181°
2026-04-30 04:48 29.75466 104.81138 39190 ft 500 kts 181°
2026-04-30 04:49 29.68535 104.81901 39187 ft 500 kts 181°
2026-04-30 04:49 29.61613 104.82663 39188 ft 500 kts 181°
2026-04-30 04:50 29.54679 104.83424 39162 ft 500 kts 181°
2026-04-30 04:50 29.47782 104.84178 39180 ft 502 kts 181°
2026-04-30 04:51 29.40820 104.84940 39178 ft 503 kts 181°
2026-04-30 04:51 29.33860 104.86033 39178 ft 511 kts 172°
2026-04-30 04:52 29.27095 104.88855 39152 ft 519 kts 163°
2026-04-30 04:52 29.20460 104.92187 39176 ft 521 kts 161°
2026-04-30 04:53 29.13835 104.95593 39170 ft 523 kts 161°
2026-04-30 04:53 29.07230 104.98956 39169 ft 523 kts 161°
2026-04-30 04:54 29.00573 105.02326 39169 ft 523 kts 162°
2026-04-30 04:54 28.93901 105.05692 39159 ft 523 kts 161°
2026-04-30 04:55 28.87236 105.09037 39168 ft 523 kts 162°
2026-04-30 04:55 28.80605 105.12342 39166 ft 523 kts 162°
2026-04-30 04:56 28.73970 105.15787 39166 ft 526 kts 158°
2026-04-30 04:56 28.67509 105.19754 39158 ft 528 kts 156°
2026-04-30 04:57 28.61076 105.23799 39165 ft 528 kts 156°
2026-04-30 04:57 28.54616 105.27767 39159 ft 528 kts 157°
2026-04-30 04:58 28.48120 105.31694 39160 ft 529 kts 157°
2026-04-30 04:58 28.41600 105.35615 39164 ft 530 kts 157°
2026-04-30 04:59 28.35074 105.39537 39154 ft 529 kts 157°
2026-04-30 04:59 28.28612 105.43442 39159 ft 523 kts 157°
2026-04-30 05:00 28.22226 105.47272 39165 ft 521 kts 157°
2026-04-30 05:00 28.15812 105.51104 39175 ft 521 kts 157°
2026-04-30 05:01 28.09399 105.54932 39184 ft 521 kts 157°
2026-04-30 05:01 28.02691 105.57686 39180 ft 506 kts 175°
2026-04-30 05:02 27.95789 105.59002 39189 ft 501 kts 178°
2026-04-30 05:02 27.88916 105.60056 39188 ft 500 kts 178°
2026-04-30 05:03 27.82015 105.61236 39192 ft 505 kts 172°
2026-04-30 05:03 27.75428 105.64091 39183 ft 515 kts 159°
2026-04-30 05:04 27.69061 105.67863 39205 ft 517 kts 156°
2026-04-30 05:04 27.62701 105.71634 39211 ft 515 kts 159°
2026-04-30 05:05 27.57285 105.74547 39206 ft 514 kts 160°
2026-04-30 05:05 27.50856 105.77945 39208 ft 514 kts 160°
2026-04-30 05:06 27.41141 105.83142 39215 ft 515 kts 159°
2026-04-30 05:06 27.34676 105.86624 39215 ft 515 kts 159°
2026-04-30 05:07 27.28214 105.90101 39219 ft 515 kts 159°
2026-04-30 05:07 27.21746 105.93574 39225 ft 515 kts 159°
2026-04-30 05:08 27.15322 105.97021 39215 ft 514 kts 159°
2026-04-30 05:08 27.08858 106.00506 39219 ft 517 kts 157°
2026-04-30 05:09 27.02971 106.05239 39224 ft 528 kts 138°
2026-04-30 05:09 26.98236 106.11589 39227 ft 532 kts 130°
2026-04-30 05:10 26.93788 106.18245 39230 ft 533 kts 129°
2026-04-30 05:10 26.89364 106.24924 39236 ft 534 kts 130°
2026-04-30 05:11 26.84902 106.31578 39235 ft 534 kts 130°
2026-04-30 05:11 26.80453 106.38161 39228 ft 534 kts 130°
2026-04-30 05:12 26.75963 106.44783 39241 ft 533 kts 130°
2026-04-30 05:12 26.71468 106.51403 39257 ft 533 kts 130°
2026-04-30 05:13 26.66971 106.58017 39268 ft 533 kts 130°
2026-04-30 05:13 26.62511 106.64572 39278 ft 533 kts 130°
2026-04-30 05:14 26.58016 106.71167 39284 ft 533 kts 130°
2026-04-30 05:14 26.53506 106.77754 39280 ft 533 kts 131°
2026-04-30 05:15 26.48469 106.83773 39284 ft 529 kts 138°
2026-04-30 05:15 26.43235 106.89562 39265 ft 529 kts 139°
2026-04-30 05:16 26.37976 106.95301 39268 ft 528 kts 139°
2026-04-30 05:16 26.32718 107.01043 39267 ft 528 kts 139°
2026-04-30 05:17 26.27498 107.06760 39273 ft 529 kts 139°
2026-04-30 05:17 26.22262 107.12516 39270 ft 528 kts 139°
2026-04-30 05:18 26.17031 107.18260 39274 ft 528 kts 139°
2026-04-30 05:18 26.11798 107.23997 39270 ft 528 kts 139°
2026-04-30 05:19 26.06550 107.29740 39272 ft 528 kts 139°
2026-04-30 05:19 26.01339 107.35436 39269 ft 528 kts 139°
2026-04-30 05:20 25.96096 107.41160 39269 ft 528 kts 139°
2026-04-30 05:20 25.90850 107.46880 39265 ft 527 kts 139°
2026-04-30 05:21 25.85639 107.52553 39263 ft 528 kts 139°
2026-04-30 05:21 25.80390 107.58260 39264 ft 528 kts 139°
2026-04-30 05:22 25.75145 107.63957 39253 ft 527 kts 139°
2026-04-30 05:22 25.69909 107.69644 39259 ft 527 kts 138°
2026-04-30 05:23 25.64689 107.75358 39260 ft 527 kts 138°
2026-04-30 05:23 25.59470 107.81075 39257 ft 527 kts 138°
2026-04-30 05:24 25.54285 107.86745 39254 ft 527 kts 138°
2026-04-30 05:24 25.48944 107.92284 39247 ft 523 kts 146°
2026-04-30 05:25 25.42674 107.96101 39233 ft 510 kts 166°
2026-04-30 05:25 25.35790 107.97636 39243 ft 503 kts 177°
2026-04-30 05:26 25.28838 107.98487 39242 ft 502 kts 179°
2026-04-30 05:26 25.21921 107.99254 39227 ft 502 kts 179°
2026-04-30 05:27 25.14962 108.00066 39228 ft 502 kts 178°
2026-04-30 05:27 25.08001 108.00907 39224 ft 503 kts 178°
2026-04-30 05:28 25.01033 108.01756 39316 ft 504 kts 178°
2026-04-30 05:28 24.97547 108.02180 39558 ft 504 kts 178°
2026-04-30 05:28 24.94107 108.02599 39849 ft 502 kts 179°
2026-04-30 05:29 24.90645 108.03021 40181 ft 499 kts 179°
2026-04-30 05:29 24.87196 108.03441 40465 ft 498 kts 179°
2026-04-30 05:29 24.83756 108.03858 40677 ft 497 kts 179°
2026-04-30 05:29 24.80318 108.04274 40886 ft 497 kts 179°
2026-04-30 05:30 24.76885 108.04689 41089 ft 496 kts 179°
2026-04-30 05:30 24.73448 108.05105 41204 ft 497 kts 179°
2026-04-30 05:30 24.66584 108.05935 41211 ft 495 kts 179°
2026-04-30 05:31 24.59763 108.06758 41211 ft 495 kts 179°
2026-04-30 05:31 24.52908 108.07587 41208 ft 495 kts 179°
2026-04-30 05:32 24.46062 108.08422 41213 ft 495 kts 179°
2026-04-30 05:32 24.39204 108.09253 41212 ft 495 kts 179°
2026-04-30 05:33 24.32344 108.10084 41212 ft 496 kts 179°
2026-04-30 05:33 24.25524 108.10913 41211 ft 496 kts 179°
2026-04-30 05:34 24.18652 108.11748 41206 ft 496 kts 179°
2026-04-30 05:34 24.11797 108.12579 41207 ft 496 kts 179°
2026-04-30 05:35 24.04918 108.13410 41201 ft 496 kts 179°
2026-04-30 05:35 23.98099 108.14235 41205 ft 496 kts 179°
2026-04-30 05:36 23.91259 108.15385 41185 ft 502 kts 169°
2026-04-30 05:36 23.84841 108.18526 41212 ft 514 kts 149°
2026-04-30 05:37 23.82050 108.20991 41214 ft 519 kts 138°
2026-04-30 05:37 23.79693 108.23988 41209 ft 523 kts 127°
2026-04-30 05:37 23.77859 108.27429 41210 ft 526 kts 116°
2026-04-30 05:37 23.76619 108.31198 41205 ft 529 kts 104°
2026-04-30 05:38 23.76022 108.35161 41205 ft 529 kts 93°
2026-04-30 05:38 23.76087 108.39177 41207 ft 528 kts 82°
2026-04-30 05:38 23.76809 108.43104 41211 ft 526 kts 71°
2026-04-30 05:38 23.78044 108.46806 41200 ft 524 kts 69°
2026-04-30 05:39 23.79594 108.54600 41210 ft 528 kts 86°
2026-04-30 05:39 23.79520 108.62634 41212 ft 530 kts 92°
2026-04-30 05:40 23.79061 108.70670 41212 ft 530 kts 94°
2026-04-30 05:40 23.78536 108.78695 41215 ft 530 kts 94°
2026-04-30 05:41 23.78032 108.86724 41211 ft 530 kts 94°
2026-04-30 05:41 23.77548 108.94704 41217 ft 530 kts 94°
2026-04-30 05:42 23.77064 109.02731 41211 ft 530 kts 94°
2026-04-30 05:42 23.76576 109.10753 41210 ft 530 kts 94°
2026-04-30 05:43 23.75511 109.18705 41211 ft 529 kts 102°
2026-04-30 05:43 23.73988 109.26561 41210 ft 529 kts 103°
2026-04-30 05:44 23.72385 109.34410 41211 ft 529 kts 103°
2026-04-30 05:44 23.70781 109.42248 41208 ft 529 kts 103°
2026-04-30 05:45 23.69196 109.50042 41205 ft 529 kts 103°
2026-04-30 05:45 23.67603 109.57882 41204 ft 529 kts 103°
2026-04-30 05:46 23.66003 109.65747 41205 ft 529 kts 103°
2026-04-30 05:46 23.64395 109.73546 41197 ft 529 kts 103°
2026-04-30 05:47 23.62771 109.81374 41197 ft 529 kts 103°
2026-04-30 05:47 23.61154 109.89165 41196 ft 529 kts 103°
2026-04-30 05:48 23.59525 109.97000 41191 ft 529 kts 103°
2026-04-30 05:48 23.57891 110.04845 41195 ft 529 kts 103°
2026-04-30 05:49 23.56267 110.12623 41193 ft 529 kts 103°
2026-04-30 05:49 23.54629 110.20442 41184 ft 529 kts 103°
2026-04-30 05:50 23.52988 110.28259 41188 ft 529 kts 103°
2026-04-30 05:50 23.51349 110.36046 41184 ft 529 kts 103°
2026-04-30 05:51 23.49738 110.43870 41172 ft 529 kts 103°
2026-04-30 05:51 23.48156 110.51700 41176 ft 529 kts 103°
2026-04-30 05:52 23.46563 110.59550 41182 ft 530 kts 103°
2026-04-30 05:52 23.44963 110.67388 41176 ft 530 kts 103°
2026-04-30 05:53 23.43365 110.75181 41178 ft 530 kts 103°
2026-04-30 05:53 23.41716 110.83020 41173 ft 530 kts 104°
2026-04-30 05:54 23.40049 110.90850 41175 ft 531 kts 104°
2026-04-30 05:54 23.38665 110.97360 41172 ft 531 kts 104°
2026-04-30 05:55 23.37000 111.05195 41169 ft 531 kts 104°
2026-04-30 05:55 23.35333 111.13032 41174 ft 531 kts 104°
2026-04-30 05:56 23.33690 111.20873 41171 ft 532 kts 103°
2026-04-30 05:56 23.32094 111.28734 41175 ft 532 kts 103°
2026-04-30 05:57 23.30503 111.36555 41178 ft 532 kts 103°
2026-04-30 05:57 23.28891 111.44415 41172 ft 532 kts 103°
2026-04-30 05:58 23.27273 111.52266 41172 ft 532 kts 103°
2026-04-30 05:58 23.25637 111.60116 41169 ft 532 kts 104°
2026-04-30 05:59 23.23966 111.67966 41172 ft 532 kts 104°
2026-04-30 05:59 23.22296 111.75798 41169 ft 532 kts 104°
2026-04-30 06:00 23.20634 111.83602 41176 ft 532 kts 104°
2026-04-30 06:00 23.18994 111.91458 41178 ft 533 kts 103°
2026-04-30 06:01 23.17364 111.99323 41172 ft 533 kts 103°
2026-04-30 06:01 23.15728 112.07189 41171 ft 533 kts 103°
2026-04-30 06:02 23.14085 112.15045 41172 ft 533 kts 103°
2026-04-30 06:02 23.12436 112.22900 41162 ft 533 kts 104°
2026-04-30 06:03 23.10784 112.30750 41165 ft 533 kts 103°
2026-04-30 06:03 23.09137 112.38559 41168 ft 533 kts 104°
2026-04-30 06:04 23.07487 112.46416 41163 ft 533 kts 102°
2026-04-30 06:05 23.06304 112.58437 41167 ft 534 kts 94°
2026-04-30 06:05 23.05774 112.66499 41164 ft 534 kts 94°
2026-04-30 06:06 23.05251 112.74553 41164 ft 535 kts 94°
2026-04-30 06:06 23.04713 112.82554 41168 ft 534 kts 94°
2026-04-30 06:07 23.04161 112.90591 41060 ft 530 kts 95°
2026-04-30 06:07 23.03884 112.94576 40356 ft 530 kts 94°
2026-04-30 06:07 23.03604 112.98591 39478 ft 534 kts 94°
2026-04-30 06:07 23.03324 113.02596 38349 ft 530 kts 94°
2026-04-30 06:08 23.03024 113.06587 36736 ft 531 kts 96°
2026-04-30 06:08 23.02296 113.10524 35213 ft 534 kts 108°
2026-04-30 06:08 23.00864 113.14243 34445 ft 532 kts 120°
2026-04-30 06:08 22.98820 113.17563 33631 ft 529 kts 132°
2026-04-30 06:09 22.96194 113.20326 32789 ft 523 kts 145°
2026-04-30 06:09 22.93128 113.22389 31961 ft 517 kts 158°
2026-04-30 06:09 22.89774 113.23689 31132 ft 510 kts 171°
2026-04-30 06:09 22.86347 113.24700 30318 ft 512 kts 166°
2026-04-30 06:10 22.82951 113.25820 29695 ft 506 kts 167°
2026-04-30 06:10 22.79607 113.26919 29103 ft 500 kts 167°
2026-04-30 06:10 22.76293 113.28023 28512 ft 494 kts 167°
2026-04-30 06:10 22.73031 113.29127 27957 ft 489 kts 167°
2026-04-30 06:11 22.69805 113.30233 27388 ft 484 kts 166°
2026-04-30 06:11 22.66652 113.31321 26837 ft 478 kts 166°
2026-04-30 06:11 22.63495 113.32414 26280 ft 474 kts 166°
2026-04-30 06:11 22.60368 113.33500 25687 ft 470 kts 166°
2026-04-30 06:12 22.57269 113.34576 25094 ft 466 kts 166°
2026-04-30 06:12 22.54190 113.35640 24528 ft 463 kts 166°
2026-04-30 06:12 22.51128 113.36695 23958 ft 460 kts 166°
2026-04-30 06:12 22.48090 113.37742 23346 ft 456 kts 166°
2026-04-30 06:13 22.45079 113.38780 22726 ft 451 kts 166°
2026-04-30 06:13 22.42097 113.39808 22150 ft 447 kts 166°
2026-04-30 06:13 22.39153 113.40824 21578 ft 442 kts 166°
2026-04-30 06:13 22.36283 113.41813 21011 ft 439 kts 166°
2026-04-30 06:14 22.34372 113.42471 20636 ft 437 kts 166°
2026-04-30 06:14 22.31486 113.43464 20062 ft 434 kts 166°
2026-04-30 06:14 22.28663 113.44448 19482 ft 432 kts 165°
2026-04-30 06:14 22.25929 113.45822 18884 ft 436 kts 152°
2026-04-30 06:15 22.23570 113.47890 18261 ft 441 kts 135°
2026-04-30 06:15 22.21866 113.50639 17584 ft 443 kts 116°
2026-04-30 06:15 22.21017 113.53822 16947 ft 441 kts 97°
2026-04-30 06:15 22.21109 113.57098 16352 ft 437 kts 78°
2026-04-30 06:16 22.22124 113.60145 15750 ft 429 kts 59°
2026-04-30 06:16 22.23791 113.62790 15130 ft 424 kts 52°
2026-04-30 06:16 22.25339 113.65498 14555 ft 422 kts 62°
2026-04-30 06:16 22.26416 113.68440 13942 ft 420 kts 71°
2026-04-30 06:17 22.27235 113.71453 13616 ft 417 kts 74°
2026-04-30 06:17 22.27960 113.74445 13354 ft 418 kts 75°
2026-04-30 06:17 22.28654 113.77488 13103 ft 416 kts 76°
2026-04-30 06:17 22.29314 113.80524 12877 ft 415 kts 77°
2026-04-30 06:18 22.29509 113.83623 12634 ft 414 kts 96°
2026-04-30 06:18 22.28824 113.86614 12402 ft 410 kts 115°
2026-04-30 06:18 22.27331 113.89196 12198 ft 403 kts 134°
2026-04-30 06:18 22.25202 113.91105 11977 ft 395 kts 153°
2026-04-30 06:19 22.22674 113.92177 11760 ft 387 kts 169°
2026-04-30 06:19 22.20079 113.92728 11536 ft 371 kts 177°
2026-04-30 06:19 22.17582 113.92737 11389 ft 348 kts 191°
2026-04-30 06:19 22.15344 113.92087 11375 ft 321 kts 207°
2026-04-30 06:20 22.13531 113.90851 11325 ft 298 kts 224°
2026-04-30 06:20 22.12088 113.89365 11202 ft 284 kts 228°
2026-04-30 06:20 22.10722 113.87839 11080 ft 283 kts 229°
2026-04-30 06:20 22.09367 113.86300 11008 ft 283 kts 229°
2026-04-30 06:21 22.08013 113.84757 11024 ft 283 kts 229°
2026-04-30 06:21 22.06659 113.83216 11025 ft 283 kts 229°
2026-04-30 06:21 22.05301 113.81672 11024 ft 283 kts 229°
2026-04-30 06:21 22.03945 113.80130 11023 ft 283 kts 229°
2026-04-30 06:22 22.02589 113.78588 11023 ft 283 kts 229°
2026-04-30 06:22 22.01233 113.77047 11023 ft 283 kts 229°
2026-04-30 06:22 21.99875 113.75504 11023 ft 283 kts 229°
2026-04-30 06:22 21.98519 113.73963 11023 ft 283 kts 229°
2026-04-30 06:23 21.97160 113.72420 11022 ft 284 kts 229°
2026-04-30 06:23 21.95799 113.70875 11024 ft 284 kts 229°
2026-04-30 06:23 21.94442 113.69335 11012 ft 284 kts 229°
2026-04-30 06:23 21.93080 113.67789 11020 ft 284 kts 229°
2026-04-30 06:24 21.91721 113.66248 11024 ft 284 kts 229°
2026-04-30 06:24 21.90376 113.64724 11024 ft 284 kts 229°
2026-04-30 06:24 21.89017 113.63184 11024 ft 284 kts 229°
2026-04-30 06:24 21.87655 113.61641 11024 ft 284 kts 229°
2026-04-30 06:25 21.86295 113.60101 11025 ft 284 kts 229°
2026-04-30 06:25 21.84933 113.58558 11025 ft 284 kts 229°
2026-04-30 06:25 21.83572 113.57018 11025 ft 284 kts 229°
2026-04-30 06:25 21.82206 113.55472 11024 ft 284 kts 229°
2026-04-30 06:26 21.80843 113.53929 11024 ft 284 kts 229°
2026-04-30 06:26 21.79480 113.52388 11025 ft 284 kts 229°
2026-04-30 06:26 21.78118 113.50848 11026 ft 284 kts 229°
2026-04-30 06:26 21.76774 113.49328 11024 ft 284 kts 229°
2026-04-30 06:27 21.75411 113.47788 11028 ft 284 kts 229°
2026-04-30 06:27 21.74043 113.46243 11027 ft 284 kts 229°
2026-04-30 06:27 21.72669 113.44710 11026 ft 285 kts 227°
2026-04-30 06:27 21.71103 113.43394 11026 ft 288 kts 213°
2026-04-30 06:28 21.69218 113.42622 11027 ft 294 kts 195°
2026-04-30 06:28 21.67159 113.42568 11018 ft 302 kts 172°
2026-04-30 06:28 21.65253 113.43562 11026 ft 311 kts 142°
2026-04-30 06:28 21.63857 113.45365 11026 ft 315 kts 127°
2026-04-30 06:29 21.62556 113.47271 11030 ft 316 kts 130°
2026-04-30 06:29 21.61184 113.49075 11024 ft 316 kts 133°
2026-04-30 06:29 21.59720 113.50841 11026 ft 316 kts 135°
2026-04-30 06:29 21.58221 113.52562 11024 ft 315 kts 136°
2026-04-30 06:30 21.56702 113.54268 11027 ft 315 kts 136°
2026-04-30 06:30 21.55413 113.56185 11025 ft 319 kts 118°
2026-04-30 06:30 21.54833 113.58484 11024 ft 321 kts 93°
2026-04-30 06:30 21.55141 113.60841 11025 ft 320 kts 69°
2026-04-30 06:31 21.56274 113.62874 11023 ft 316 kts 44°
2026-04-30 06:31 21.58007 113.64270 11033 ft 310 kts 23°
2026-04-30 06:31 21.59888 113.65432 11022 ft 314 kts 33°
2026-04-30 06:31 21.61533 113.66945 11023 ft 316 kts 41°
2026-04-30 06:32 21.63115 113.68598 11026 ft 317 kts 42°
2026-04-30 06:32 21.64681 113.70265 11036 ft 317 kts 42°
2026-04-30 06:32 21.66263 113.71926 11028 ft 317 kts 40°
2026-04-30 06:32 21.67896 113.73517 11027 ft 317 kts 39°
2026-04-30 06:33 21.69540 113.75095 11024 ft 317 kts 39°
2026-04-30 06:33 21.71183 113.76681 11023 ft 317 kts 39°
2026-04-30 06:33 21.72825 113.78274 11025 ft 317 kts 39°
2026-04-30 06:33 21.74443 113.79848 10993 ft 316 kts 41°
2026-04-30 06:34 21.76042 113.81409 11000 ft 315 kts 39°
2026-04-30 06:34 21.77667 113.83003 11020 ft 316 kts 39°
2026-04-30 06:34 21.79303 113.84601 11026 ft 317 kts 39°
2026-04-30 06:34 21.80937 113.86197 11024 ft 317 kts 39°
2026-04-30 06:35 21.82578 113.87802 11026 ft 317 kts 39°
2026-04-30 06:35 21.84126 113.89455 11017 ft 319 kts 49°
2026-04-30 06:35 21.85097 113.91599 11028 ft 322 kts 78°
2026-04-30 06:35 21.85309 113.93990 11030 ft 322 kts 89°
2026-04-30 06:36 21.85354 113.96407 11023 ft 323 kts 89°
2026-04-30 06:36 21.85396 113.98828 11023 ft 323 kts 89°
2026-04-30 06:36 21.85447 114.01245 11027 ft 323 kts 89°
2026-04-30 06:36 21.85504 114.03664 11025 ft 323 kts 89°
2026-04-30 06:37 21.85565 114.06086 11001 ft 323 kts 89°
2026-04-30 06:37 21.85627 114.08489 10711 ft 319 kts 89°
2026-04-30 06:37 21.85690 114.10890 10455 ft 320 kts 89°
2026-04-30 06:37 21.85753 114.13286 10259 ft 320 kts 89°
2026-04-30 06:38 21.85816 114.15674 10074 ft 319 kts 89°
2026-04-30 06:38 21.85879 114.18054 9905 ft 317 kts 89°
2026-04-30 06:38 21.86003 114.20421 9704 ft 317 kts 81°
2026-04-30 06:38 21.86623 114.22663 9611 ft 317 kts 67°
2026-04-30 06:39 21.87483 114.24842 9381 ft 314 kts 65°
2026-04-30 06:39 21.88362 114.26996 9200 ft 313 kts 65°
2026-04-30 06:39 21.89233 114.29144 9012 ft 312 kts 65°
2026-04-30 06:39 21.90098 114.31291 8844 ft 311 kts 65°
2026-04-30 06:40 21.90944 114.33399 8666 ft 310 kts 65°
2026-04-30 06:40 21.91795 114.35526 8504 ft 309 kts 65°
2026-04-30 06:40 21.92641 114.37646 8328 ft 307 kts 65°
2026-04-30 06:40 21.93485 114.39759 8158 ft 307 kts 65°
2026-04-30 06:41 21.94417 114.41811 7981 ft 304 kts 55°
2026-04-30 06:41 21.95915 114.43359 7832 ft 296 kts 26°
2026-04-30 06:41 21.97847 114.43945 7657 ft 286 kts 357°
2026-04-30 06:41 21.99801 114.43723 7505 ft 281 kts 346°
2026-04-30 06:42 22.01719 114.43317 7336 ft 281 kts 345°
2026-04-30 06:42 22.02986 114.43041 7247 ft 280 kts 345°
2026-04-30 06:42 22.04901 114.42633 7094 ft 279 kts 345°
2026-04-30 06:42 22.06809 114.42234 6939 ft 278 kts 345°
2026-04-30 06:43 22.08706 114.41841 6788 ft 277 kts 345°
2026-04-30 06:43 22.10599 114.41450 6627 ft 276 kts 346°
2026-04-30 06:43 22.12482 114.41064 6482 ft 275 kts 346°
2026-04-30 06:43 22.14359 114.40679 6329 ft 274 kts 346°
2026-04-30 06:44 22.16233 114.40295 6176 ft 273 kts 346°
2026-04-30 06:44 22.18102 114.39909 6008 ft 273 kts 345°
2026-04-30 06:44 22.19929 114.39369 5961 ft 272 kts 339°
2026-04-30 06:44 22.21696 114.38729 5914 ft 271 kts 338°
2026-04-30 06:45 22.23478 114.38068 5863 ft 271 kts 338°
2026-04-30 06:45 22.25261 114.37407 5823 ft 270 kts 338°
2026-04-30 06:45 22.27046 114.36748 5763 ft 270 kts 338°
2026-04-30 06:45 22.28820 114.36093 5715 ft 270 kts 338°
2026-04-30 06:46 22.30600 114.35436 5663 ft 270 kts 338°
2026-04-30 06:46 22.32380 114.34779 5619 ft 269 kts 338°
2026-04-30 06:46 22.34149 114.34127 5582 ft 267 kts 338°
2026-04-30 06:46 22.35863 114.33497 5518 ft 253 kts 338°
2026-04-30 06:47 22.37489 114.32898 5401 ft 241 kts 338°
2026-04-30 06:47 22.39006 114.32228 5258 ft 229 kts 327°
2026-04-30 06:47 22.40094 114.31070 5152 ft 215 kts 298°
2026-04-30 06:47 22.40566 114.29609 5059 ft 204 kts 282°
2026-04-30 06:48 22.40838 114.28141 4936 ft 197 kts 279°
2026-04-30 06:48 22.41003 114.26669 4805 ft 197 kts 272°
2026-04-30 06:48 22.40881 114.25227 4683 ft 188 kts 258°
2026-04-30 06:48 22.40550 114.23904 4613 ft 177 kts 254°
2026-04-30 06:49 22.40163 114.22665 4535 ft 174 kts 253°
2026-04-30 06:49 22.39766 114.21426 4519 ft 175 kts 252°
2026-04-30 06:49 22.39365 114.20178 4513 ft 176 kts 252°
2026-04-30 06:49 22.38961 114.18922 4514 ft 178 kts 252°
2026-04-30 06:50 22.38558 114.17672 4507 ft 174 kts 253°
2026-04-30 06:50 22.38166 114.16441 4441 ft 174 kts 253°
2026-04-30 06:50 22.37776 114.15216 4252 ft 172 kts 253°
2026-04-30 06:50 22.37384 114.13990 3988 ft 180 kts 253°
2026-04-30 06:51 22.36960 114.12667 3704 ft 187 kts 253°
2026-04-30 06:51 22.36535 114.11345 3434 ft 190 kts 253°
2026-04-30 06:51 22.36101 114.09984 3175 ft 192 kts 252°
2026-04-30 06:51 22.35660 114.08616 2910 ft 193 kts 253°
2026-04-30 06:52 22.35219 114.07241 2668 ft 195 kts 254°
2026-04-30 06:52 22.34775 114.05848 2427 ft 196 kts 253°
2026-04-30 06:52 22.34329 114.04460 2137 ft 195 kts 254°
2026-04-30 06:52 22.33900 114.03124 1889 ft 181 kts 253°
2026-04-30 06:53 22.33504 114.01893 1659 ft 166 kts 254°
2026-04-30 06:53 22.33140 114.00753 1435 ft 155 kts 253°
2026-04-30 06:53 22.32797 113.99683 1252 ft 146 kts 255°
2026-04-30 06:53 22.32468 113.98655 1065 ft 144 kts 253°
2026-04-30 06:54 22.32141 113.97635 876 ft 143 kts 252°
2026-04-30 06:54 22.31814 113.96626 687 ft 142 kts 256°
2026-04-30 06:54 22.31498 113.95619 517 ft 144 kts 255°
2026-04-30 06:54 22.31175 113.94608 321 ft 140 kts 252°
2026-04-30 06:55 22.30840 113.93624 141 ft 139 kts 256°
2026-04-30 06:55 22.30538 113.92643 41 ft 132 kts 253°
2026-04-30 06:55 22.30308 113.91930 39 ft 68 kts 250°
2026-04-30 06:55 22.30226 113.91679 38 ft 15 kts 250°
2026-04-30 06:56 22.30200 113.91567 38 ft 14 kts 284°
2026-04-30 06:56 22.30273 113.91505 38 ft 14 kts 338°
2026-04-30 06:56 22.30354 113.91532 38 ft 14 kts 55°
2026-04-30 06:56 22.30395 113.91635 38 ft 16 kts 69°
2026-04-30 06:57 22.30436 113.91761 38 ft 19 kts 71°
2026-04-30 06:57 22.30482 113.91909 38 ft 22 kts 71°
2026-04-30 06:57 22.30538 113.92079 38 ft 25 kts 70°
2026-04-30 06:57 22.30601 113.92269 38 ft 28 kts 70°
2026-04-30 06:58 22.30635 113.92352 38 ft 5 kts 45°
2026-04-30 06:58 22.30679 113.92369 38 ft 8 kts
2026-04-30 06:58 22.30742 113.92350 38 ft 11 kts 341°
2026-04-30 06:58 22.30827 113.92318 38 ft 15 kts 341°
2026-04-30 06:59 22.30933 113.92278 38 ft 18 kts 340°
2026-04-30 06:59 22.31057 113.92232 38 ft 20 kts 341°
2026-04-30 06:59 22.31201 113.92178 38 ft 23 kts 341°
2026-04-30 06:59 22.31361 113.92119 38 ft 25 kts 341°
2026-04-30 07:00 22.31476 113.92077 38 ft 3 kts 341°
2026-04-30 07:00 22.31521 113.92077 38 ft 7 kts 24°
2026-04-30 07:00 22.31560 113.92124 38 ft 10 kts 63°
2026-04-30 07:00 22.31591 113.92210 38 ft 14 kts 70°
2026-04-30 07:01 22.31626 113.92318 38 ft 13 kts 70°
2026-04-30 07:01 22.31638 113.92424 38 ft 16 kts 103°
2026-04-30 07:01 22.31615 113.92487 38 ft 1 kts 113°
2026-04-30 07:01 22.31604 113.92508 38 ft 4 kts 129°
2026-04-30 07:02 22.31579 113.92510 38 ft 5 kts 184°
2026-04-30 07:02 22.31532 113.92496 38 ft 9 kts 202°
2026-04-30 07:02 22.31517 113.92489 38 ft 3 kts 203°
2026-04-30 07:02 22.31509 113.92485 38 ft 0 kts 204°
2026-04-30 07:03 22.31508 113.92485 38 ft 0 kts 204°
2026-04-30 07:06 22.31508 113.92486 38 ft 0 kts 206°